Location: Montclair
(37.8322°N, 122.2092°W)
Time: 14:52:38
(UTC+00:00)

Cosmos 1535 Rocket - Pass Details

Date: 08 September 2024
Orbit: 947 x 1004 km, 83.0° (Epoch: 07 October)

Event Time Altitude Azimuth Distance (km) Brightness Sun altitude
Rises 12:47:52 0° 352° (N) 3,706 7.6 -11.9°
Reaches altitude 10° 12:50:24 10° 351° (N) 2,746 7.0 -11.4°
Maximum altitude 12:56:42 81° 265° (W) 989 4.5 -10.2°
Drops below altitude 10° 13:02:51 10° 179° (S) 2,689 6.7 -9.1°
Sets 13:05:19 0° 178° (S) 3,624 7.4 -8.6°
